Home   Weather   Bridgewater   Past weeks

Flag for USA Past Weather in Bridgewater, Massachusetts, USA — Yesterday and Last 2 Weeks

Now
80 °F

Sunny.


Feels Like: 79 °F
Forecast: 54 / 82 °F
Wind: 5 mph from North

Location: Taunton Municipal Airport

Current Time: Aug 17, 2017 at 1:53:39 pm

Latest Report: Aug 17, 2017 at 12:52 pm


Visibility: 10 mi

Pressure: 30.03 "Hg

Humidity: 32%

Dew Point: 48 °F

Location of BridgewaterLocation

Past Weather in Bridgewater — Graph

°F

Bridgewater Temperature Yesterday

Maximum temperature yesterday: 86 °F (at 3:52 pm)
Minimum temperature yesterday: 58 °F (at 1:52 am)
Average temperature yesterday: 69 °F

High & Low Weather Summary for the Past Weeks

 TemperatureHumidityPressure
High86 °F (Aug 10, 12:52 pm)97% (Aug 4, 4:31 am)30.25 "Hg (Aug 4, 4:31 am)
Low49 °F (Aug 17, 6:05 am)34% (Aug 9, 1:52 pm)29.81 "Hg (Aug 5, 5:52 pm)
Average69 °F78%30.01 "Hg
* Reported Aug 2 11:52 am — Aug 17 11:52 am, Bridgewater. Weather by CustomWeather, © 2017

Note: Actual official high and low records may vary slightly from our data, if they occured in-between our weather recording intervals... More about our weather records

Advertising

Bridgewater Weather History for the Previous 24 Hours

Scroll right to see more
 ConditionsComfort  
Time TempWeatherWind HumidityBarometerVisibility
11:52 am
Thu, Aug 17
77 °FSunny.N/A37%30.04 "Hg10 mi
10:52 am74 °FSunny.3 mph41%30.06 "Hg10 mi
9:52 am73 °FSunny.No wind44%30.07 "Hg10 mi
8:52 am69 °FSunny.No wind55%30.06 "Hg10 mi
7:52 am62 °FSunny.No wind75%30.07 "Hg10 mi
6:52 am53 °FSunny.No wind93%30.06 "Hg10 mi
6:12 am49 °FSunny.No wind93%30.05 "Hg8 mi
6:05 am49 °FFog.No wind93%30.04 "Hg2 mi
5:52 am50 °FFog.No wind89%30.03 "Hg1 mi
5:10 am50 °FFog.No wind96%30.03 "Hg1 mi
4:57 am51 °FFog.No wind92%30.03 "Hg1 mi
4:35 am52 °FClear.No wind93%30.03 "Hg7 mi
4:17 am53 °FFog.No wind93%30.03 "Hg1 mi
3:52 am54 °FOvercast.No wind93%30.02 "Hg8 mi
2:52 am54 °FClear.No wind93%30.01 "Hg8 mi
1:52 am56 °FPassing clouds.No wind93%30.01 "Hg10 mi
12:52 am56 °FPassing clouds.No wind93%30.01 "Hg10 mi
11:52 pm
Wed, Aug 16
58 °FPassing clouds.3 mph90%30.01 "Hg10 mi
10:52 pm58 °FClear.No wind93%30.00 "Hg9 mi
9:52 pm60 °FClear.No wind90%29.98 "Hg10 mi
8:52 pm63 °FClear.No wind87%29.96 "Hg10 mi
7:52 pm67 °FPassing clouds.No wind79%29.94 "Hg10 mi
6:52 pm80 °FSunny.3 mph45%29.92 "Hg10 mi
5:52 pm83 °FPassing clouds.6 mph41%29.90 "Hg10 mi
4:52 pm84 °FSunny.6 mph41%29.89 "Hg10 mi
3:52 pm86 °FPassing clouds.6 mph40%29.90 "Hg10 mi
2:52 pm85 °FPartly sunny.7 mph42%29.90 "Hg10 mi
1:52 pm84 °FScattered clouds.9 mph43%29.91 "Hg10 mi
Weather by CustomWeather, © 2017

See weather overviewHow to use our weather pages